Track FAST 1 (USA 222) now! 10-day predictions FAST 1 (USA 222) is classified as:
1 37227U 10062F 23341.54426145 .00001039 00000-0 13963-3 0 9992 2 37227 71.9690 33.1695 0014163 42.5295 317.6963 14.81468214229034